Cherry Point, NC

5:48 PM EDT on July 24, 2017 (GMT -0400)
Cherry Point Marine Corps Air Station

Weather History for KNKT - July, 2013

Change the Weather History Date:

Monday, July 15, 2013

  Actual Average Record
Temperature  
Mean Temperature 80 °F -  
Max Temperature 88 °F 84 °F 93 °F (2017)
Min Temperature 73 °F 68 °F 62 °F (2001)
Cooling Degree Days 15    
Growing Degree Days 30 (Base 50)    
Moisture  
Dew Point 72 °F    
Average Humidity 78    
Maximum Humidity 94    
Minimum Humidity 61    
Precipitation  
Precipitation 0.00 in - - ()
Sea Level Pressure  
Sea Level Pressure 30.28 in    
Wind  
Wind Speed 3 mph ()    
Max Wind Speed 13 mph    
Max Gust Speed -    
Visibility 9.4 miles    
Events      
Averages and records for this station are not official NWS values.
T = Trace of Precipitation, MM = Missing Value Source: Averaged Metar Reports

Daily Weather History Graph

Daily Weather History Graph

Search for Another Location

Airport or City:

Trip Planner

Search our weather history database for the weather conditions in past years. The results will help you decide how hot, cold, wet, or windy it might be!

Date:

Astronomy

Jul. 15, 2013 Rise Set
Actual Time 6:05 AM EDT 8:21 PM EDT
Civil Twilight 5:36 AM EDT 8:50 PM EDT
Nautical Twilight 5:00 AM EDT 9:25 PM EDT
Astronomical Twilight 4:22 AM EDT 10:04 PM EDT
Moon 1:03 PM EDT (7/15) No Moon Set
Length of Visible Light 15h 13m
Length of Day
14h 16m
Waxing Crescent, 45% of the Moon is Illuminated
Jul 15
Waxing Crescent
Jul 15
First Quarter
Jul 22
Full
Jul 29
Last Quarter
Aug 6
New

Hourly Weather History & Observations

Time (EDT) Temp. Heat Index Dew Point Humidity Pressure Visibility Wind Dir Wind Speed Gust Speed Precip Events Conditions
12:54 AM 73.9 °F - 72.0 °F 93% 30.28 in 7.0 mi Calm Calm - N/A   Clear
1:54 AM 75.0 °F - 73.0 °F 94% 30.28 in 9.0 mi Calm Calm - N/A   Clear
2:54 AM 75.0 °F - 72.0 °F 90% 30.27 in 9.0 mi ENE 3.5 mph - N/A   Clear
3:54 AM 75.0 °F - 72.0 °F 90% 30.27 in 9.0 mi Calm Calm - N/A   Clear
4:54 AM 75.0 °F - 72.0 °F 90% 30.27 in 8.0 mi Calm Calm - N/A   Clear
5:54 AM 73.9 °F - 72.0 °F 93% 30.28 in 7.0 mi Calm Calm - N/A   Clear
6:54 AM 73.9 °F - 72.0 °F 93% 30.29 in 7.0 mi ESE 3.5 mph - N/A   Partly Cloudy
7:54 AM 79.0 °F - 73.9 °F 84% 30.29 in 10.0 mi East 4.6 mph - N/A   Partly Cloudy
8:54 AM 82.0 °F 87.9 °F 73.9 °F 76% 30.30 in 10.0 mi East 6.9 mph - N/A   Scattered Clouds
9:54 AM 82.0 °F 86.7 °F 72.0 °F 71% 30.30 in 10.0 mi ESE 6.9 mph - N/A   Scattered Clouds
10:54 AM 84.0 °F 88.4 °F 70.0 °F 63% 30.30 in 10.0 mi ENE 9.2 mph - N/A   Scattered Clouds
11:54 AM 86.0 °F 91.5 °F 71.1 °F 61% 30.30 in 10.0 mi Variable 5.8 mph - N/A   Mostly Cloudy
12:54 PM 87.1 °F 94.5 °F 73.0 °F 63% 30.30 in 10.0 mi NE 12.7 mph - N/A   Mostly Cloudy
1:54 PM 86.0 °F 93.8 °F 73.9 °F 67% 30.28 in 10.0 mi ENE 11.5 mph - N/A   Mostly Cloudy
2:54 PM 84.9 °F 90.7 °F 72.0 °F 65% 30.28 in 10.0 mi East 8.1 mph - 0.00 in   Mostly Cloudy
3:54 PM 87.1 °F 93.6 °F 72.0 °F 61% 30.27 in 10.0 mi ENE 8.1 mph - N/A   Mostly Cloudy
4:54 PM 86.0 °F 93.0 °F 73.0 °F 65% 30.26 in 10.0 mi ESE 5.8 mph - N/A   Mostly Cloudy
5:54 PM 84.9 °F 90.7 °F 72.0 °F 65% 30.25 in 10.0 mi East 5.8 mph - N/A   Mostly Cloudy
6:54 PM 84.9 °F 90.1 °F 71.1 °F 63% 30.25 in 10.0 mi ESE 6.9 mph - N/A   Mostly Cloudy
7:54 PM 82.0 °F 85.9 °F 70.0 °F 67% 30.25 in 10.0 mi ESE 3.5 mph - N/A   Mostly Cloudy
8:54 PM 78.1 °F - 72.0 °F 81% 30.25 in 10.0 mi South 4.6 mph - N/A   Scattered Clouds
9:54 PM 75.9 °F - 72.0 °F 87% 30.26 in 10.0 mi Calm Calm - N/A   Partly Cloudy
10:54 PM 75.0 °F - 72.0 °F 90% 30.27 in 10.0 mi Calm Calm - N/A   Partly Cloudy
11:54 PM 75.0 °F - 72.0 °F 90% 30.27 in 10.0 mi SSE 3.5 mph - N/A   Partly Cloudy